Beaufort, NC

2:58 PM EDT on July 28, 2017 (GMT -0400)
Smith

Weather History for KMRH - February, 2012

Change the Weather History Date:

Monday, February 27, 2012

  Actual Average Record
Temperature  
Mean Temperature 52 °F -  
Max Temperature 66 °F 57 °F 74 °F (1976)
Min Temperature 37 °F 36 °F 16 °F (1967)
Degree Days  
Heating Degree Days 14    
Growing Degree Days 2 (Base 50)    
Moisture  
Dew Point 48 °F    
Average Humidity 78    
Maximum Humidity 92    
Minimum Humidity 50    
Precipitation  
Precipitation 0.00 in - - ()
Sea Level Pressure  
Sea Level Pressure 30.40 in    
Wind  
Wind Speed 4 mph (SSE)    
Max Wind Speed 13 mph    
Max Gust Speed 17 mph    
Visibility 10 miles    
Events Rain    
Averages and records for this station are not official NWS values.
T = Trace of Precipitation, MM = Missing Value Source: NWS Daily Summary

Daily Weather History Graph

Daily Weather History Graph

Search for Another Location

Airport or City:

Trip Planner

Search our weather history database for the weather conditions in past years. The results will help you decide how hot, cold, wet, or windy it might be!

Date:

Astronomy

Feb. 27, 2012 Rise Set
Actual Time 6:39 AM EST 6:00 PM EST
Civil Twilight 6:13 AM EST 6:25 PM EST
Nautical Twilight 5:44 AM EST 6:55 PM EST
Astronomical Twilight 5:15 AM EST 7:24 PM EST
Moon 9:22 AM EST (2/27) 11:34 PM EST (2/27)
Length of Visible Light 12h 12m
Length of Day
11h 21m
Waxing Crescent, 29% of the Moon is Illuminated
Feb 27
Waxing Crescent
Feb 29
First Quarter
Mar 8
Full
Mar 14
Last Quarter
Mar 22
New

Hourly Weather History & Observations

Time (EST) Temp. Windchill Dew Point Humidity Pressure Visibility Wind Dir Wind Speed Gust Speed Precip Events Conditions
12:56 AM 39.0 °F 36.8 °F 35.1 °F 86% 30.47 in 10.0 mi East 3.5 mph - N/A   Clear
1:56 AM 37.9 °F - 35.1 °F 89% 30.46 in 10.0 mi Calm Calm - N/A   Clear
2:56 AM 39.0 °F - 36.0 °F 89% 30.45 in 10.0 mi Calm Calm - N/A   Scattered Clouds
3:56 AM 42.1 °F - 39.9 °F 92% 30.47 in 10.0 mi Calm Calm - N/A   Overcast
4:56 AM 45.0 °F - 42.1 °F 90% 30.47 in 10.0 mi Calm Calm - N/A   Overcast
5:56 AM 45.0 °F - 41.0 °F 86% 30.47 in 10.0 mi Calm Calm - N/A   Overcast
6:56 AM 46.9 °F - 43.0 °F 86% 30.47 in 10.0 mi East 5.8 mph - N/A   Overcast
7:56 AM 51.1 °F - 46.0 °F 83% 30.46 in 10.0 mi ENE 4.6 mph - N/A   Overcast
8:56 AM 55.9 °F - 46.9 °F 72% 30.46 in 10.0 mi East 4.6 mph - N/A   Overcast
9:56 AM 59.0 °F - 48.9 °F 69% 30.44 in 10.0 mi East 3.5 mph - N/A   Clear
11:56 AM 66.0 °F - 46.9 °F 50% 30.42 in 10.0 mi SSE 12.7 mph 17.3 mph N/A   Mostly Cloudy
12:56 PM 64.9 °F - 50.0 °F 58% 30.39 in 10.0 mi SSE 6.9 mph - N/A   Overcast
1:56 PM 64.9 °F - 50.0 °F 58% 30.37 in 10.0 mi South 10.4 mph - N/A   Overcast
2:56 PM 64.0 °F - 53.1 °F 67% 30.36 in 10.0 mi South 9.2 mph - N/A   Overcast
3:56 PM 63.0 °F - 53.1 °F 70% 30.35 in 10.0 mi South 8.1 mph - N/A   Overcast
4:56 PM 63.0 °F - 54.0 °F 72% 30.34 in 10.0 mi South 9.2 mph - N/A   Overcast
5:56 PM 62.1 °F - 53.1 °F 72% 30.34 in 10.0 mi SSW 8.1 mph - N/A   Overcast
6:56 PM 61.0 °F - 54.0 °F 78% 30.35 in 8.0 mi SW 9.2 mph - 0.00 in Rain Light Rain
7:56 PM 60.1 °F - 55.0 °F 83% 30.34 in 10.0 mi Calm Calm - 0.00 in   Overcast
8:56 PM 60.1 °F - 55.0 °F 83% 30.34 in 10.0 mi Calm Calm - N/A   Overcast
9:56 PM 61.0 °F - 55.9 °F 83% 30.34 in 10.0 mi SSW 3.5 mph - N/A   Overcast
10:56 PM 60.1 °F - 55.9 °F 86% 30.33 in 10.0 mi SSW 4.6 mph - N/A   Overcast
11:56 PM 61.0 °F - 57.9 °F 90% 30.31 in 9.0 mi WSW 3.5 mph - N/A   Overcast